[[{"header":{"parameterUnit":"m.s-1","parameterCategory":2,"la1":30.2991,"la2":30.254,"lo1":-89.0895,"lo2":-89.0444,"dy":0.0017,"dx":0.0017,"nx":28,"ny":28,"refTime":"2024-07-27T21:00:00:Z","depth":"0","parameterNumber":2,"parameterNumberName":"U-component_of_CURRENTS"},"data":[0,0,0,0,0,0,0,0,0,0,0,0,0,0,0,0,0,0,0,0,0,0,0,0,0,0,0,0,0,0,0,0,0,0,0,0,0,0,0,0,0,0,0,0,0,0,0,0,0,0,0,0,0,0,0,0,0,0,0.2956,0.2956,0,0.2939,0.2938,0.2938,0.297,0.2971,0.2972,0.2973,0.2977,0.2976,0.2975,0,0,0,0,0,0,0,0,0,0,0,0,0,0.3051,0.3049,0.2956,0.2956,0.2956,0.2939,0.2938,0.2938,0.2969,0.2971,0.2972,0.2974,0.2978,0.2976,0.2975,0,0,0,0,0,0,0,0,0,0,0,0,0,0.3017,0.3048,0.2956,0.2971,0.2972,0.2939,0.2938,0.2938,0.2969,0.2971,0.2973,0.2975,0.2978,0.2977,0.2975,0.2929,0,0,0.297,0.297,0,0,0,0,0,0,0,0,0.3019,0.3014,0.2969,0.297,0.2971,0.296,0.2973,0.2937,0.2969,0.2969,0.2973,0.2975,0.2973,0.2972,0.2962,0.2929,0.293,0.297,0.2969,0.2969,0.2968,0,0,0,0,0,0,0,0.3021,0.3015,0.2948,0.2969,0.297,0.299,0.2987,0.2967,0.296,0.2969,0.2971,0.2971,0.2974,0.2963,0.2963,0.293,0.297,0.2969,0.2968,0.2967,0.2891,0.289,0,0,0,0,0,0,0.3023,0.3016,0.2948,0.2947,0.3002,0.2987,0.2983,0.296,0.296,0.2962,0.297,0.2973,0.2965,0.2964,0.2963,0.2928,0.2969,0.2967,0.2966,0.2892,0.2891,0.289,0,0,0,0,0,0,0.3024,0.3016,0.2949,0.2985,0.2978,0.2983,0.2957,0.2959,0.2948,0.2961,0.2963,0.2958,0.2967,0.2965,0.2936,0.2928,0.2967,0.2965,0.2894,0.2892,0.289,0.2846,0,0,0,0,0,0,0.3026,0.3016,0.2997,0.2984,0.2976,0.2919,0.2956,0.2957,0.2946,0.295,0.2951,0.2954,0.2968,0.2938,0.2934,0.2927,0.2964,0.2895,0.2893,0.2891,0.2849,0.2843,0.2838,0,0,0,0,0,0.3029,0.2996,0.2996,0.2988,0.295,0.2918,0.2914,0.2925,0.2944,0.2925,0.2928,0.2953,0.2923,0.2934,0.2931,0.2923,0.2896,0.2893,0.2891,0.2851,0.2844,0.2838,0,0,0,0,0,0,0.3017,0.2996,0.2996,0.2954,0.2934,0.2924,0.291,0.2914,0.2899,0.2907,0.2924,0.2924,0.2906,0.2908,0.292,0.2895,0.2919,0.2916,0.289,0.2884,0.2878,0.2887,0.2963,0,0,0,0,0,0.3006,0.2982,0.296,0.2926,0.2914,0.2908,0.2898,0.29,0.2889,0.2885,0.2886,0.2889,0.2889,0.2881,0.288,0.2845,0.2884,0.2842,0.2837,0.2832,0.2837,0.288,0.2879,0.2882,0.2882,0.2882,0,0,0.2995,0.2978,0.2965,0.2924,0.2911,0.289,0.2905,0.288,0.2863,0.2885,0.2858,0.2867,0.2876,0.2855,0.2847,0.2855,0.2852,0.2829,0.2825,0.2832,0.2877,0.2877,0.2878,0.288,0.288,0.288,0,0,0.2973,0.2938,0.2922,0.29,0.2878,0.2867,0.2856,0.2835,0.2825,0.2792,0.282,0.2816,0.2797,0.2809,0.2813,0.2768,0.2826,0.2772,0.2745,0.2786,0.2787,0.2788,0.2841,0.2848,0.2764,0.2764,0.2763,0,0.2965,0.2935,0.291,0.2889,0.2877,0.2856,0.2839,0.281,0.2783,0.2774,0.278,0.2776,0.278,0.2774,0.2765,0.2759,0.2799,0.277,0.2781,0.2783,0.2785,0.284,0.2848,0.2761,0.2761,0.2762,0.2762,0,0.294,0.2915,0.2897,0.2869,0.2843,0.2817,0.2785,0.2756,0.2745,0.2731,0.2714,0.2714,0.2722,0.2718,0.2726,0.2738,0.2769,0.2776,0.2802,0.2783,0.2841,0.285,0.2758,0.2758,0.2759,0.276,0,0,0.2928,0.2894,0.2885,0.2881,0.2834,0.2812,0.277,0.2733,0.2724,0.2685,0.2684,0.2664,0.2675,0.268,0.2693,0.2714,0.2759,0.2747,0.275,0.2809,0.2869,0.2787,0.279,0.2776,0.2777,0.2778,0.2906,0,0.2924,0.2897,0.2873,0.2845,0.2833,0.2798,0.2765,0.2726,0.27,0.2683,0.2668,0.2672,0.2655,0.2677,0.2686,0.2747,0.278,0.2725,0.2872,0.2877,0.2813,0.2795,0.2577,0.2663,0.2915,0.2917,0.2918,0,0.2912,0.2901,0.288,0.2856,0.2845,0.2822,0.2786,0.2754,0.2712,0.2696,0.268,0.268,0.2688,0.2693,0.2766,0.2735,0.2799,0.2843,0.2849,0.2795,0.281,0.2721,0.267,0.2529,0.2932,0.2931,0.293,0,0.2934,0.2902,0.2893,0.288,0.2844,0.2832,0.2809,0.2764,0.2743,0.2719,0.272,0.2713,0.2735,0.2787,0.2833,0.2824,0.2932,0.2937,0.2926,0.2924,0.2775,0.2755,0.2608,0.3013,0.3013,0.3013,0.3012,0,0.2935,0.2924,0.2906,0.2899,0.2888,0.2857,0.284,0.281,0.2787,0.2765,0.2738,0.2738,0.2763,0.2805,0.2857,0.2898,0.2952,0.2923,0.2943,0.2751,0.2729,0.2631,0.2621,0.3018,0.3017,0.3016,0.3015,0,0.2942,0.2932,0.2927,0.2906,0.2899,0.2889,0.2857,0.2841,0.2823,0.2804,0.2804,0.2783,0.2822,0.285,0.2949,0.2928,0.2881,0.3006,0.2775,0.2763,0.2583,0.258,0.2479,0.2429,0.3008,0.3006,0.3005,0,0.2937,0.2939,0.2933,0.2929,0.2917,0.2902,0.2883,0.2858,0.2841,0.2823,0.2817,0.2844,0.2839,0.2912,0.288,0.2933,0.2857,0.2761,0.2684,0.2528,0.2543,0.2487,0.245,0.2489,0.2483,0.2479,0.2476,0,0.294,0.2944,0.2942,0.2937,0.2926,0.2899,0.2877,0.2873,0.2839,0.2829,0.2814,0.2822,0.2826,0.2723,0.2745,0.2745,0.2552,0.2674,0.2562,0.2154,0.2037,0.2011,0.2476,0.2437,0.2441,0.2444,0.2446,0.2447,0.2948,0.2948,0.2955,0.2936,0.2922,0.2886,0.2843,0.2827,0.2802,0.273,0.2784,0.2703,0.2543,0.252,0.2502,0.2222,0.2368,0.2086,0.2116,0.2088,0.1947,0.2328,0.2273,0.2275,0.2278,0.228,0.2282,0,0.2955,0.2955,0.2946,0.2923,0.2882,0.2874,0.2821,0.2746,0.2693,0.2632,0.2601,0.2341,0.2178,0.2028,0.1748,0.1636,0.1596,0.1559,0.1399,0.1414,0.1766,0.1642,0.1382,0.1382,0.1383,0.1383,0.1383,0.1383,0.2972,0.2963,0.2944,0.2885,0.2851,0.275,0.2699,0.2587,0.2501,0.2253,0.2052,0.1969,0.171,0.139,0.112,0.1099,0.1042,0.0962,0.1089,0.1268,0.1317,0.1364,0.1237,0.0897,0.0897,0.0588,0.0586,0.0584]},{"header":{"parameterUnit":"m.s-1","parameterCategory":2,"la1":30.2991,"la2":30.254,"lo1":-89.0895,"lo2":-89.0444,"dy":0.0017,"dx":0.0017,"nx":28,"ny":28,"refTime":"2024-07-27T21:00:00:Z","depth":"0","parameterNumber":3,"parameterNumberName":"V-component_of_CURRENTS"},"data":[0,0,0,0,0,0,0,0,0,0,0,0,0,0,0,0,0,0,0,0,0,0,0,0,0,0,0,0,0,0,0,0,0,0,0,0,0,0,0,0,0,0,0,0,0,0,0,0,0,0,0,0,0,0,0,0,0,0,-0.0421,-0.0421,0,-0.0344,-0.0343,-0.0342,-0.0286,-0.0286,-0.0285,-0.0285,-0.022,-0.0219,-0.0218,0,0,0,0,0,0,0,0,0,0,0,0,0,-0.0492,-0.0491,-0.0421,-0.0421,-0.042,-0.0345,-0.0343,-0.0342,-0.0286,-0.0286,-0.0285,-0.0285,-0.0221,-0.0219,-0.0218,0,0,0,0,0,0,0,0,0,0,0,0,0,-0.0441,-0.0491,-0.0421,-0.0384,-0.038,-0.0345,-0.0343,-0.0342,-0.0286,-0.0286,-0.0285,-0.0285,-0.0221,-0.0219,-0.0217,-0.0214,0,0,-0.0211,-0.021,0,0,0,0,0,0,0,0,-0.0444,-0.0439,-0.039,-0.0387,-0.0382,-0.0326,-0.0345,-0.03,-0.0286,-0.032,-0.0285,-0.0284,-0.0258,-0.0253,-0.0237,-0.0211,-0.0208,-0.0211,-0.0209,-0.0208,-0.0208,0,0,0,0,0,0,0,-0.0448,-0.0441,-0.0389,-0.039,-0.0384,-0.0362,-0.0354,-0.0336,-0.0292,-0.0317,-0.0313,-0.0308,-0.0256,-0.0239,-0.0235,-0.0207,-0.0211,-0.0209,-0.0207,-0.0207,-0.0157,-0.0157,0,0,0,0,0,0,-0.0463,-0.0445,-0.0391,-0.0387,-0.0415,-0.0361,-0.0352,-0.0343,-0.0291,-0.0283,-0.0308,-0.0305,-0.0243,-0.0238,-0.0233,-0.0202,-0.0208,-0.0206,-0.0205,-0.0157,-0.0157,-0.0157,0,0,0,0,0,0,-0.0465,-0.0459,-0.0395,-0.0416,-0.0406,-0.0361,-0.035,-0.0342,-0.0325,-0.0285,-0.0277,-0.03,-0.0242,-0.0236,-0.0206,-0.02,-0.0205,-0.0204,-0.0157,-0.0157,-0.0157,-0.0156,0,0,0,0,0,0,-0.0467,-0.046,-0.0458,-0.0417,-0.0406,-0.0376,-0.0351,-0.0341,-0.0323,-0.0318,-0.0276,-0.0269,-0.0242,-0.021,-0.0204,-0.0197,-0.0202,-0.0157,-0.0157,-0.0157,-0.0156,-0.0155,-0.0155,0,0,0,0,0,-0.047,-0.0463,-0.0458,-0.0452,-0.0405,-0.0377,-0.0369,-0.0334,-0.0323,-0.0316,-0.0281,-0.027,-0.0206,-0.0208,-0.0201,-0.0193,-0.0157,-0.0157,-0.0157,-0.0156,-0.0156,-0.0155,0,0,0,0,0,0,-0.0484,-0.0456,-0.0449,-0.0433,-0.0412,-0.0368,-0.0357,-0.0339,-0.0306,-0.0301,-0.0265,-0.0255,-0.0228,-0.0216,-0.0219,-0.0181,-0.0182,-0.0181,-0.0184,-0.0183,-0.0183,-0.0166,-0.02,0,0,0,0,0,-0.0492,-0.0482,-0.0454,-0.0441,-0.0435,-0.0401,-0.0386,-0.0365,-0.0331,-0.0315,-0.0285,-0.0254,-0.0224,-0.0207,-0.0183,-0.0162,-0.0149,-0.0155,-0.0155,-0.0155,-0.0138,-0.0127,-0.0124,-0.0157,-0.0157,-0.0157,0,0,-0.0492,-0.0477,-0.047,-0.0445,-0.0425,-0.0397,-0.0389,-0.0369,-0.0337,-0.0316,-0.0268,-0.0254,-0.0219,-0.0188,-0.0176,-0.0175,-0.014,-0.0155,-0.0155,-0.0137,-0.0127,-0.0123,-0.012,-0.0157,-0.0157,-0.0157,0,0,-0.0473,-0.0479,-0.0457,-0.0445,-0.0423,-0.0403,-0.0401,-0.0365,-0.0344,-0.0308,-0.0281,-0.0259,-0.0218,-0.0184,-0.0163,-0.0151,-0.0141,-0.0155,-0.0134,-0.0125,-0.0122,-0.0119,-0.01,-0.0095,-0.0153,-0.0153,-0.0153,0,-0.0464,-0.0438,-0.0447,-0.0422,-0.0402,-0.0405,-0.0368,-0.0352,-0.0307,-0.0281,-0.0294,-0.022,-0.0208,-0.0147,-0.0147,-0.0148,-0.0141,-0.0137,-0.0124,-0.012,-0.0117,-0.0099,-0.0094,-0.0153,-0.0153,-0.0153,-0.0153,0,-0.042,-0.0405,-0.0395,-0.0362,-0.035,-0.0325,-0.0309,-0.0293,-0.028,-0.0253,-0.0209,-0.0193,-0.0146,-0.0151,-0.0143,-0.0112,-0.0114,-0.0128,-0.0123,-0.0114,-0.0095,-0.009,-0.0152,-0.0153,-0.0153,-0.0153,0,0,-0.0346,-0.0358,-0.0346,-0.0328,-0.0314,-0.0289,-0.0261,-0.0215,-0.0175,-0.0169,-0.0107,-0.0091,-0.0097,-0.0075,-0.0075,-0.0072,-0.0062,-0.0095,-0.0094,-0.0073,-0.0034,-0.0004,0.0004,-0.008,-0.0079,-0.0078,-0.003,0,-0.0287,-0.0247,-0.0261,-0.0207,-0.0181,-0.019,-0.0154,-0.0126,-0.0109,-0.0062,-0.0062,-0.0018,-0.0064,-0.0047,-0.0054,-0.005,-0.0047,-0.0072,-0.0048,-0.0046,-0.0018,0.0012,0.0049,0.0098,-0.0025,-0.0024,-0.0024,0,-0.0204,-0.0194,-0.0145,-0.0125,-0.0111,-0.0081,-0.0025,0.0004,0.0041,0.0054,0.0073,0.0066,0.0083,0.0029,0.0033,0.0017,-0.0008,-0.002,-0.0018,0.0018,-0.0006,0.0069,0.0112,0.0073,-0.0015,-0.0016,-0.0017,0,-0.012,-0.0095,-0.0057,-0.005,-0.0034,-0.0003,0.0015,0.0051,0.0086,0.0126,0.0153,0.0159,0.0174,0.0139,0.0097,0.0062,0.0104,0.0054,0.0064,0.0066,0.0111,0.0116,0.0127,0.0057,0.0056,0.0056,0.0056,0,-0.0034,0.0006,-0.0018,0.0007,0.0068,0.0059,0.0131,0.0149,0.0187,0.0239,0.0213,0.0256,0.0196,0.0202,0.0144,0.014,0.014,0.009,0.0088,0.0112,0.0116,0.0095,0.0072,0.0058,0.0058,0.0057,0.0057,0,0.0066,0.0044,0.0091,0.01,0.0106,0.0155,0.0185,0.023,0.0256,0.032,0.033,0.0342,0.035,0.0305,0.0275,0.022,0.0205,0.0194,0.0234,0.0236,0.019,0.0166,0.0223,0.0233,0.0209,0.021,0.0211,0,0.0119,0.0148,0.0158,0.0172,0.0178,0.0224,0.0252,0.0272,0.0311,0.0375,0.0414,0.0442,0.0477,0.0467,0.0395,0.0343,0.0281,0.0319,0.0254,0.0218,0.0189,0.0175,0.0177,0.0311,0.0313,0.0314,0.0315,0,0.0218,0.0216,0.0233,0.0247,0.0272,0.0309,0.0345,0.0386,0.0415,0.0473,0.0548,0.0585,0.0591,0.0581,0.0518,0.0457,0.0328,0.0346,0.0298,0.0277,0.0274,0.0273,0.0248,0.0328,0.0326,0.0325,0.0325,0.0324,0.0283,0.0301,0.0292,0.0309,0.0338,0.0374,0.0416,0.0459,0.0531,0.062,0.065,0.0744,0.0711,0.0645,0.057,0.0448,0.0429,0.0381,0.036,0.035,0.0357,0.0369,0.0447,0.0446,0.0446,0.0445,0.0445,0,0.0316,0.0312,0.0341,0.0349,0.0382,0.0389,0.0456,0.0502,0.0588,0.0706,0.0785,0.0849,0.0812,0.0713,0.0553,0.0466,0.0427,0.0413,0.0385,0.0387,0.0393,0.0392,0.0473,0.0473,0.0473,0.0473,0.0474,0.0474,0.0328,0.0326,0.0319,0.0354,0.0381,0.0436,0.0478,0.0559,0.0657,0.0793,0.0886,0.0946,0.0857,0.063,0.0465,0.0428,0.0375,0.0394,0.0355,0.0324,0.0318,0.0312,0.0305,0.0367,0.0367,0.037,0.037,0.037]}],[{"header":{"parameterUnit":"m.s-1","parameterCategory":2,"la1":30.2991,"la2":30.254,"lo1":-89.0895,"lo2":-89.0444,"dy":0.0017,"dx":0.0017,"nx":28,"ny":28,"refTime":"2024-07-27T21:00:00:Z","depth":"2","parameterNumber":2,"parameterNumberName":"U-component_of_CURRENTS"},"data":[0,0,0,0,0,0,0,0,0,0,0,0,0,0,0,0,0,0,0,0,0,0,0,0,0,0,0,0,0,0,0,0,0,0,0,0,0,0,0,0,0,0,0,0,0,0,0,0,0,0,0,0,0,0,0,0,0,0,0.2106,0.2107,0,0.217,0.2171,0.2171,0.2201,0.2201,0.2201,0.2201,0.2228,0.2228,0.2229,0,0,0,0,0,0,0,0,0,0,0,0,0,0.205,0.205,0.2106,0.2107,0.2108,0.217,0.2171,0.2171,0.2201,0.2201,0.2201,0.2201,0.2227,0.2228,0.2229,0,0,0,0,0,0,0,0,0,0,0,0,0,0.2088,0.205,0.2106,0.2132,0.2135,0.217,0.2171,0.2171,0.2201,0.2201,0.2201,0.2201,0.2227,0.2228,0.2229,0.223,0,0,0.2231,0.2232,0,0,0,0,0,0,0,0,0.2086,0.2089,0.2127,0.213,0.2134,0.2179,0.2161,0.219,0.2201,0.2173,0.2201,0.2201,0.2209,0.2212,0.2221,0.2231,0.2232,0.2232,0.2232,0.2232,0.2233,0,0,0,0,0,0,0,0.2083,0.2087,0.2129,0.2128,0.2132,0.2154,0.2159,0.2166,0.2187,0.2176,0.2179,0.2189,0.2211,0.222,0.2221,0.2232,0.2231,0.2232,0.2233,0.2233,0.2326,0.2328,0,0,0,0,0,0,0.2077,0.2084,0.2127,0.2131,0.2112,0.2155,0.216,0.2163,0.2188,0.2193,0.2189,0.219,0.2218,0.222,0.2222,0.2272,0.2232,0.2233,0.2234,0.2324,0.2327,0.2329,0,0,0,0,0,0,0.2075,0.208,0.2125,0.2112,0.2119,0.2156,0.2158,0.2164,0.2197,0.2199,0.2202,0.2218,0.2218,0.2221,0.2257,0.2271,0.2234,0.2234,0.2322,0.2325,0.2328,0.234,0,0,0,0,0,0,0.2073,0.2079,0.2088,0.2111,0.212,0.2157,0.2158,0.2165,0.2202,0.2205,0.2225,0.2226,0.2219,0.2255,0.2257,0.2272,0.2235,0.232,0.2323,0.2327,0.2337,0.2343,0.2348,0,0,0,0,0,0.2071,0.2072,0.2088,0.2094,0.2128,0.2158,0.2165,0.219,0.2204,0.222,0.2242,0.2227,0.228,0.2258,0.2259,0.2274,0.2318,0.2322,0.2327,0.2335,0.2342,0.2348,0,0,0,0,0,0,0.2055,0.2077,0.2094,0.2104,0.2138,0.2164,0.218,0.2205,0.2236,0.2242,0.2247,0.2251,0.2289,0.2289,0.2264,0.2317,0.2298,0.2303,0.2304,0.2311,0.2316,0.2293,0.2236,0,0,0,0,0,0.2056,0.2062,0.2096,0.2108,0.2124,0.216,0.2181,0.2201,0.2228,0.2243,0.2261,0.2283,0.2306,0.2315,0.2333,0.2357,0.2368,0.2373,0.2378,0.2382,0.2369,0.2425,0.2433,0.2343,0.2343,0.2343,0,0,0.2054,0.2068,0.2073,0.2106,0.2131,0.215,0.2172,0.2205,0.2226,0.2239,0.2276,0.2304,0.232,0.235,0.2366,0.2351,0.2416,0.2388,0.2391,0.2374,0.243,0.2438,0.2446,0.2346,0.2346,0.2345,0,0,0.2042,0.2066,0.2067,0.2095,0.2137,0.2157,0.2174,0.2217,0.2242,0.2284,0.2303,0.2341,0.2375,0.2386,0.2396,0.2445,0.2448,0.2464,0.2462,0.2517,0.2524,0.253,0.2557,0.2566,0.246,0.246,0.246,0,0.2033,0.2045,0.2076,0.2089,0.2108,0.2162,0.2174,0.2207,0.226,0.2281,0.2297,0.237,0.2385,0.2417,0.2437,0.2452,0.2483,0.2429,0.2521,0.2528,0.2534,0.256,0.257,0.2461,0.2461,0.2461,0.2461,0,0.2026,0.2043,0.2048,0.2075,0.2103,0.2125,0.2172,0.2209,0.225,0.2285,0.2345,0.2381,0.242,0.2442,0.245,0.2505,0.2513,0.2525,0.2496,0.2543,0.2569,0.2578,0.2463,0.2463,0.2462,0.2462,0,0,0.1955,0.2026,0.2025,0.2046,0.2098,0.2117,0.2154,0.2199,0.2223,0.2293,0.2323,0.2387,0.2424,0.2439,0.247,0.2513,0.2585,0.2539,0.2541,0.2548,0.2702,0.2511,0.2503,0.2626,0.2628,0.2629,0.2701,0,0.1932,0.1964,0.1997,0.2022,0.2042,0.2095,0.2121,0.2175,0.2223,0.2267,0.2332,0.2377,0.242,0.2444,0.2501,0.2563,0.2611,0.2563,0.2668,0.267,0.2482,0.2508,0.2288,0.2316,0.271,0.2712,0.2713,0,0.1895,0.1927,0.1957,0.2006,0.2015,0.2038,0.2086,0.2119,0.2192,0.2231,0.2298,0.2351,0.2428,0.2456,0.2593,0.2568,0.2636,0.2683,0.2688,0.2504,0.2496,0.2335,0.2318,0.2728,0.2727,0.2726,0.2725,0,0.1836,0.1882,0.1911,0.1932,0.2,0.2017,0.205,0.2114,0.2141,0.2214,0.2241,0.2343,0.2391,0.2506,0.2601,0.262,0.2729,0.2768,0.266,0.2648,0.247,0.2437,0.2864,0.2863,0.2863,0.2863,0.2863,0,0.179,0.1806,0.1894,0.1911,0.1931,0.1988,0.201,0.2052,0.211,0.2138,0.2228,0.2262,0.2412,0.2488,0.2593,0.2625,0.2733,0.2645,0.2648,0.2467,0.2434,0.2799,0.2791,0.2866,0.2865,0.2865,0.2864,0,0.1728,0.1787,0.1816,0.189,0.1911,0.1928,0.1986,0.1997,0.2063,0.2098,0.2123,0.222,0.2297,0.2405,0.2556,0.2575,0.2647,0.2636,0.2383,0.2352,0.2542,0.2534,0.2538,0.2531,0.2526,0.2522,0.2518,0,0.1708,0.1723,0.1795,0.181,0.1846,0.1884,0.1901,0.1969,0.1979,0.207,0.2073,0.2146,0.2156,0.2253,0.2287,0.236,0.2514,0.22,0.2176,0.2502,0.2508,0.2508,0.2507,0.1976,0.1968,0.1962,0.1956,0,0.1659,0.1689,0.1717,0.1746,0.1769,0.1789,0.1822,0.1819,0.1891,0.1907,0.1923,0.1935,0.1976,0.1892,0.193,0.1981,0.2159,0.2065,0.2502,0.2055,0.1967,0.1974,0.1993,0.1899,0.1905,0.1909,0.1912,0.1914,0.1616,0.1615,0.1648,0.1654,0.1686,0.1674,0.1663,0.1675,0.1659,0.1629,0.1699,0.1621,0.1631,0.1525,0.1545,0.1597,0.1775,0.1753,0.1776,0.1806,0.169,0.1594,0.1435,0.1438,0.144,0.1442,0.1444,0,0.153,0.1542,0.1548,0.1533,0.1503,0.1581,0.159,0.1533,0.147,0.1405,0.1353,0.1137,0.1057,0.1144,0.1106,0.114,0.1202,0.1134,0.1196,0.125,0.1299,0.1162,0.0765,0.0764,0.0762,0.0761,0,0,0.1484,0.1436,0.1417,0.1335,0.1356,0.1333,0.1339,0.1263,0.1203,0.1,0.0894,0.0867,0.0973,0.0766,0.0797,0.0771,0.101,0.0752,0.1284,0.1401,0.1448,0.163,0.1474,0,0,0,0,0]},{"header":{"parameterUnit":"m.s-1","parameterCategory":2,"la1":30.2991,"la2":30.254,"lo1":-89.0895,"lo2":-89.0444,"dy":0.0017,"dx":0.0017,"nx":28,"ny":28,"refTime":"2024-07-27T21:00:00:Z","depth":"2","parameterNumber":3,"parameterNumberName":"V-component_of_CURRENTS"},"data":[0,0,0,0,0,0,0,0,0,0,0,0,0,0,0,0,0,0,0,0,0,0,0,0,0,0,0,0,0,0,0,0,0,0,0,0,0,0,0,0,0,0,0,0,0,0,0,0,0,0,0,0,0,0,0,0,0,0,0.0055,0.0055,0,0.003,0.003,0.0029,-0.0027,-0.0028,-0.0029,-0.003,-0.011,-0.0111,-0.0112,0,0,0,0,0,0,0,0,0,0,0,0,0,0.0024,0.0025,0.0056,0.0055,0.0055,0.003,0.003,0.0029,-0.0027,-0.0028,-0.003,-0.0031,-0.0109,-0.011,-0.0112,0,0,0,0,0,0,0,0,0,0,0,0,0,0.0023,0.0026,0.0056,0.0023,0.002,0.003,0.003,0.0029,-0.0026,-0.0028,-0.003,-0.0032,-0.0109,-0.011,-0.0112,-0.0084,0,0,-0.0116,-0.0117,0,0,0,0,0,0,0,0,0.0023,0.0024,0.0028,0.0025,0.0022,0.0002,-0.0011,-0.0012,-0.0026,-0.0008,-0.003,-0.0033,-0.0076,-0.0081,-0.0079,-0.0087,-0.0091,-0.0116,-0.0117,-0.0118,-0.0118,0,0,0,0,0,0,0,0.0023,0.0025,0.0046,0.0028,0.0024,-0.0001,-0.0003,-0.0011,-0.0032,-0.0009,-0.0014,-0.0018,-0.0079,-0.0078,-0.0082,-0.0092,-0.0116,-0.0118,-0.0118,-0.0119,-0.0134,-0.0133,0,0,0,0,0,0,0.0029,0.0026,0.0047,0.0045,0.0017,0.0001,-0.0001,0.0011,-0.0031,-0.0039,-0.0016,-0.002,-0.0074,-0.008,-0.0085,-0.0114,-0.0118,-0.0119,-0.012,-0.0134,-0.0134,-0.0133,0,0,0,0,0,0,0.0029,0.0032,0.0048,0.0033,0.0033,0.0003,0.0017,0.0011,-0.0021,-0.0035,-0.0044,-0.0046,-0.0076,-0.0083,-0.0104,-0.0116,-0.012,-0.0121,-0.0135,-0.0134,-0.0134,-0.0134,0,0,0,0,0,0,0.0028,0.0032,0.0027,0.0034,0.0034,0.0037,0.0019,0.0012,-0.0018,-0.0025,-0.0063,-0.007,-0.0078,-0.0101,-0.0105,-0.0118,-0.0122,-0.0135,-0.0135,-0.0134,-0.0135,-0.0134,-0.0133,0,0,0,0,0,0.0027,0.0025,0.0028,0.0029,0.0034,0.0037,0.0034,0.0007,-0.0018,-0.003,-0.0049,-0.0071,-0.0099,-0.0102,-0.0107,-0.012,-0.0136,-0.0135,-0.0134,-0.0135,-0.0134,-0.0133,0,0,0,0,0,0,-0.0015,0.002,0.0022,0.0024,0.0025,0.0026,0.0003,-0.0006,-0.0029,-0.005,-0.0064,-0.0071,-0.0091,-0.01,-0.0103,-0.0118,-0.0121,-0.0121,-0.0121,-0.012,-0.0119,-0.0131,-0.0123,0,0,0,0,0,-0.0016,-0.0001,0.0019,0.0012,0.0014,0.0006,-0.0004,-0.0017,-0.0028,-0.0043,-0.0066,-0.0084,-0.0082,-0.0099,-0.0102,-0.0115,-0.0109,-0.0125,-0.0124,-0.0123,-0.0134,-0.0114,-0.0112,-0.013,-0.013,-0.013,0,0,-0.0043,-0.0019,-0.0018,0.0005,-0.0001,0.0002,-0.0006,-0.0028,-0.0037,-0.0046,-0.0084,-0.0083,-0.0081,-0.0089,-0.01,-0.0107,-0.0113,-0.0122,-0.0121,-0.0133,-0.0113,-0.0111,-0.011,-0.0129,-0.0129,-0.0129,0,0,-0.0072,-0.0059,-0.005,-0.0041,-0.004,-0.0033,-0.0043,-0.0049,-0.0068,-0.0084,-0.0084,-0.0088,-0.0112,-0.0099,-0.0095,-0.009,-0.0102,-0.01,-0.0116,-0.0096,-0.0094,-0.0093,-0.0076,-0.0073,-0.0107,-0.0107,-0.0107,0,-0.0106,-0.0076,-0.0056,-0.0045,-0.0044,-0.0049,-0.0049,-0.0059,-0.0077,-0.0082,-0.0106,-0.0103,-0.0111,-0.0089,-0.0093,-0.0089,-0.0085,-0.0123,-0.0095,-0.0094,-0.0093,-0.0076,-0.0073,-0.0107,-0.0107,-0.0107,-0.0107,0,-0.0109,-0.0099,-0.0102,-0.0072,-0.0073,-0.0077,-0.0072,-0.009,-0.0113,-0.0114,-0.0119,-0.0113,-0.0111,-0.0109,-0.0109,-0.0097,-0.0097,-0.009,-0.0101,-0.0091,-0.0073,-0.007,-0.0107,-0.0107,-0.0107,-0.0107,0,0,-0.0124,-0.0104,-0.0103,-0.0089,-0.0082,-0.0075,-0.0096,-0.0089,-0.0093,-0.012,-0.0116,-0.0117,-0.0119,-0.0114,-0.0102,-0.0097,-0.0083,-0.0105,-0.0104,-0.0093,-0.0046,-0.0023,-0.0017,-0.0077,-0.0076,-0.0076,-0.0035,0,-0.0125,-0.0104,-0.0097,-0.0091,-0.0073,-0.0082,-0.009,-0.0095,-0.0105,-0.0105,-0.0103,-0.0097,-0.0117,-0.0111,-0.011,-0.0077,-0.0077,-0.0095,-0.0054,-0.0053,-0.0037,-0.0014,-0.0019,0.002,-0.0032,-0.0031,-0.0031,0,-0.0096,-0.0083,-0.0077,-0.0065,-0.0062,-0.0072,-0.0066,-0.0077,-0.0079,-0.0089,-0.0092,-0.0088,-0.0074,-0.0096,-0.0064,-0.0078,-0.0078,-0.0063,-0.0061,-0.0041,-0.0024,0.0001,0.0027,-0.0026,-0.0026,-0.0026,-0.0027,0,-0.0055,-0.0054,-0.0046,-0.0042,-0.0043,-0.0057,-0.007,-0.0076,-0.0068,-0.0078,-0.0068,-0.0061,-0.0045,-0.0044,-0.0024,-0.0051,0.0018,-0.0004,0.0017,0.0019,0.0022,0.0023,0.0002,0.0002,0.0001,0.0001,0.0001,0,-0.001,-0.0003,-0.0033,-0.0019,-0.0011,-0.0038,-0.0031,-0.0044,-0.0049,-0.001,-0.006,-0.0012,-0.0037,0.0002,-0.0004,0.0033,0.0038,0.0016,0.0033,0.0023,0.0024,-0.0014,-0.0016,0.0003,0.0003,0.0002,0.0002,0,0.0049,0.0029,0.005,0.0027,0.0018,0.0021,0.0002,0.0022,-0.0015,0.0037,0.0036,0.0034,0.0086,0.0083,0.0113,0.0076,0.0104,0.0111,0.01,0.0114,0.0076,0.0073,0.0119,0.012,0.0121,0.0122,0.0123,0,0.0078,0.0095,0.0093,0.011,0.0095,0.0085,0.0097,0.0055,0.0089,0.0097,0.015,0.017,0.0257,0.0288,0.0223,0.022,0.0192,0.0173,0.0114,0.0077,0.0089,0.0085,0.0081,0.012,0.012,0.0121,0.0121,0,0.0147,0.0144,0.0169,0.0197,0.0208,0.0229,0.0233,0.0275,0.0257,0.03,0.0397,0.0453,0.043,0.0422,0.0346,0.0321,0.0169,0.0182,0.0169,0.0091,0.0082,0.0092,0.0087,0.0126,0.0126,0.0125,0.0125,0.0125,0.0202,0.0241,0.0274,0.0301,0.032,0.0377,0.0404,0.0453,0.053,0.0591,0.0631,0.0673,0.0565,0.0483,0.0407,0.025,0.0248,0.0176,0.0172,0.0169,0.0162,0.0155,0.0212,0.0212,0.0212,0.0212,0.0212,0,0.0286,0.0322,0.037,0.0425,0.0477,0.0438,0.0501,0.0543,0.0663,0.0727,0.0814,0.0734,0.0698,0.0548,0.0321,0.0219,0.0178,0.018,0.0142,0.0139,0.0136,0.0125,0.0166,0.0165,0.0165,0.0165,0,0,0.0342,0.0422,0.0449,0.0554,0.0572,0.0607,0.0639,0.0706,0.074,0.0831,0.082,0.0875,0.0701,0.054,0.0402,0.0269,0.0221,0.0242,0.029,0.0259,0.0257,0.0148,0.0131,0,0,0,0,0]}],[{"header":{"parameterUnit":"m.s-1","parameterCategory":2,"la1":30.2991,"la2":30.254,"lo1":-89.0895,"lo2":-89.0444,"dy":0.0017,"dx":0.0017,"nx":28,"ny":28,"refTime":"2024-07-27T21:00:00:Z","depth":"4","parameterNumber":2,"parameterNumberName":"U-component_of_CURRENTS"},"data":[0,0,0,0,0,0,0,0,0,0,0,0,0,0,0,0,0,0,0,0,0,0,0,0,0,0,0,0,0,0,0,0,0,0,0,0,0,0,0,0,0,0,0,0,0,0,0,0,0,0,0,0,0,0,0,0,0,0,-0.0254,-0.0254,0,-0.0254,-0.0254,-0.0254,-0.0223,-0.0223,-0.0222,-0.0222,-0.0108,-0.0106,-0.0103,0,0,0,0,0,0,0,0,0,0,0,0,0,-0.0267,-0.0266,-0.0254,-0.0254,-0.0255,-0.0254,-0.0254,-0.0254,-0.0223,-0.0223,-0.0222,-0.0221,-0.0109,-0.0106,-0.0103,0,0,0,0,0,0,0,0,0,0,0,0,0,-0.0261,-0.0266,-0.0254,-0.0242,-0.0241,-0.0254,-0.0254,-0.0254,-0.0223,-0.0223,-0.0222,-0.0221,-0.011,-0.0106,-0.0102,-0.0095,0,0,-0.0091,-0.0089,0,0,0,0,0,0,0,0,-0.0261,-0.026,-0.0243,-0.0243,-0.0242,-0.024,-0.0217,-0.0196,-0.0224,-0.0227,-0.0222,-0.0221,-0.0144,-0.0138,-0.0137,-0.009,-0.0085,-0.0091,-0.0088,-0.0087,-0.0086,0,0,0,0,0,0,0,-0.0261,-0.026,-0.0251,-0.0244,-0.0243,-0.025,-0.0247,-0.0213,-0.0186,-0.0227,-0.0225,-0.023,-0.0142,-0.0141,-0.0134,-0.0083,-0.0091,-0.0087,-0.0085,-0.0083,0.011,0.0113,0,0,0,0,0,0,-0.0266,-0.026,-0.0251,-0.0252,-0.0253,-0.025,-0.0247,-0.0239,-0.0189,-0.0182,-0.0231,-0.0229,-0.0148,-0.0138,-0.0129,0.0014,-0.0087,-0.0083,-0.0081,0.0108,0.0111,0.0114,0,0,0,0,0,0,-0.0266,-0.0265,-0.0251,-0.0259,-0.0258,-0.0251,-0.0242,-0.024,-0.0214,-0.0194,-0.0184,-0.0205,-0.0147,-0.0135,-0.0062,0.0014,-0.0081,-0.0078,0.0104,0.0109,0.0113,0.0216,0,0,0,0,0,0,-0.0266,-0.0264,-0.0261,-0.0259,-0.0258,-0.0243,-0.0243,-0.024,-0.0221,-0.0217,-0.0168,-0.0159,-0.0145,-0.0067,-0.0058,0.0017,-0.0075,0.0101,0.0106,0.0111,0.0209,0.0224,0.0236,0,0,0,0,0,-0.0266,-0.0261,-0.026,-0.0259,-0.0252,-0.0243,-0.0242,-0.0233,-0.022,-0.0206,-0.0158,-0.0159,-0.0026,-0.0062,-0.0052,0.0026,0.0098,0.0105,0.0111,0.0203,0.0221,0.0236,0,0,0,0,0,0,-0.0262,-0.0258,-0.0256,-0.025,-0.0241,-0.0238,-0.0231,-0.022,-0.0175,-0.0154,-0.0131,-0.0117,-0.0021,-0.0018,-0.0059,0.0098,0.004,0.0049,0.0107,0.0123,0.0136,0.0129,-0.0072,0,0,0,0,0,-0.0263,-0.0257,-0.0252,-0.0246,-0.0239,-0.0229,-0.0224,-0.0207,-0.0174,-0.0154,-0.0105,-0.005,0.0008,0.0048,0.0092,0.017,0.0126,0.023,0.0244,0.0255,0.0257,0.0234,0.0245,0.0136,0.0135,0.0135,0,0,-0.0265,-0.0259,-0.0259,-0.0245,-0.0238,-0.0207,-0.0222,-0.0196,-0.0145,-0.0146,-0.0043,-0.0003,0.0037,0.0134,0.0178,0.0151,0.0266,0.0263,0.0272,0.0268,0.0242,0.0252,0.0261,0.014,0.0139,0.0138,0,0,-0.0259,-0.0253,-0.0242,-0.0227,-0.0205,-0.0185,-0.0169,-0.013,-0.0088,0.0004,0.0025,0.0094,0.02,0.0232,0.0262,0.037,0.0333,0.0413,0.0484,0.0463,0.0471,0.0477,0.0437,0.0439,0.0425,0.0425,0.0426,0,-0.0257,-0.0236,-0.0238,-0.0213,-0.0187,-0.0165,-0.0124,-0.0082,-0.0011,0.0035,0.006,0.021,0.0242,0.0333,0.0392,0.0399,0.0379,0.0419,0.0477,0.0482,0.0487,0.0444,0.0445,0.0431,0.0431,0.043,0.0429,0,-0.0234,-0.0212,-0.02,-0.0151,-0.0123,-0.0084,-0.0028,0.0038,0.0111,0.0155,0.0279,0.0329,0.0415,0.0452,0.047,0.0543,0.0516,0.0488,0.0428,0.0503,0.0455,0.0453,0.0439,0.0437,0.0436,0.0434,0,0,-0.0234,-0.0191,-0.0184,-0.0152,-0.0079,-0.0052,0.0051,0.0136,0.0198,0.0306,0.0392,0.0514,0.0543,0.0578,0.0605,0.0607,0.0632,0.059,0.0586,0.0535,0.0587,0.0601,0.06,0.0625,0.0626,0.0626,0.0539,0,-0.0205,-0.0159,-0.0127,-0.0052,-0.0018,0.005,0.0137,0.0221,0.0303,0.0394,0.0465,0.0562,0.0591,0.0652,0.0665,0.0637,0.0636,0.0658,0.0534,0.053,0.0521,0.0602,0.0628,0.0538,0.0537,0.0537,0.0537,0,-0.0183,-0.0154,-0.0087,-0.0,0.0025,0.01,0.023,0.0304,0.0417,0.0485,0.0584,0.0636,0.0709,0.0704,0.0693,0.0716,0.0677,0.0636,0.063,0.0604,0.0543,0.0447,0.0533,0.0533,0.0534,0.0534,0.0534,0,-0.0192,-0.0117,-0.0059,-0.0031,0.0071,0.0153,0.0235,0.0348,0.0405,0.0543,0.0592,0.0684,0.0731,0.0713,0.0693,0.07,0.0632,0.0606,0.0568,0.0565,0.0524,0.0518,0.0575,0.0575,0.0575,0.0575,0.0576,0,-0.0165,-0.0126,-0.005,-0.0019,0.0078,0.0161,0.0267,0.0364,0.0468,0.0521,0.064,0.0683,0.0741,0.0729,0.0693,0.064,0.0629,0.0594,0.0558,0.0572,0.0573,0.0522,0.0517,0.0572,0.0573,0.0573,0.0574,0,-0.0181,-0.0139,-0.0085,0.0026,0.0073,0.0146,0.0277,0.0326,0.0446,0.0516,0.0573,0.0679,0.0703,0.0714,0.0665,0.0631,0.0571,0.0543,0.0558,0.052,0.0511,0.0513,0.0495,0.0495,0.0495,0.0495,0.0495,0,-0.0173,-0.0156,-0.0077,-0.0039,0.003,0.0132,0.0191,0.0318,0.0357,0.049,0.0509,0.0603,0.0666,0.0588,0.0616,0.0569,0.0557,0.0508,0.0538,0.0543,0.0509,0.0511,0.0512,0.0495,0.0495,0.0495,0.0495,0,-0.0177,-0.0166,-0.0125,-0.006,0.0012,0.0052,0.0157,0.0181,0.0307,0.0393,0.0459,0.0521,0.0547,0.0571,0.0568,0.0517,0.0541,0.0509,0.0508,0.0536,0.0543,0.051,0.0511,0.0496,0.0496,0.0496,0.0496,0,-0.0182,-0.0168,-0.0132,-0.0063,-0.0022,-0.0002,0.0047,0.0115,0.0173,0.0336,0.0336,0.0437,0.0519,0.054,0.0508,0.0517,0.0509,0.0461,0.0463,0.0463,0.0508,0.0516,0.0442,0,0,0,0,0,-0.0174,-0.0163,-0.0129,-0.0072,-0.0057,-0.0029,0.0031,0.007,0.0174,0.0203,0.0288,0.0329,0.04,0.0433,0.0439,0.0497,0.0499,0.05,0.0439,0.0497,0.0497,0.0561,0,0,0,0,0,0,-0.0165,-0.0145,-0.0137,-0.0114,-0.0087,-0.0072,-0.0047,0.0017,0.0043,0.0159,0.0188,0.0291,0.0347,0.0395,0.0428,0.0443,0.0391,0.0564,0.0562,0.0497,0.0497,0.0497,0.0563,0,0,0,0,0]},{"header":{"parameterUnit":"m.s-1","parameterCategory":2,"la1":30.2991,"la2":30.254,"lo1":-89.0895,"lo2":-89.0444,"dy":0.0017,"dx":0.0017,"nx":28,"ny":28,"refTime":"2024-07-27T21:00:00:Z","depth":"4","parameterNumber":3,"parameterNumberName":"V-component_of_CURRENTS"},"data":[0,0,0,0,0,0,0,0,0,0,0,0,0,0,0,0,0,0,0,0,0,0,0,0,0,0,0,0,0,0,0,0,0,0,0,0,0,0,0,0,0,0,0,0,0,0,0,0,0,0,0,0,0,0,0,0,0,0,0.0373,0.0373,0,0.0396,0.0396,0.0396,0.0454,0.0455,0.0457,0.0458,0.0463,0.0462,0.0461,0,0,0,0,0,0,0,0,0,0,0,0,0,0.0341,0.0341,0.0373,0.0373,0.0374,0.0396,0.0396,0.0396,0.0454,0.0455,0.0457,0.0459,0.0463,0.0462,0.0461,0,0,0,0,0,0,0,0,0,0,0,0,0,0.0357,0.0342,0.0373,0.0407,0.041,0.0396,0.0396,0.0396,0.0453,0.0455,0.0457,0.0459,0.0464,0.0462,0.046,0.0408,0,0,0.0455,0.0454,0,0,0,0,0,0,0,0,0.0356,0.0358,0.0401,0.0404,0.0408,0.0426,0.0387,0.04,0.0453,0.0435,0.0458,0.046,0.0449,0.0448,0.0445,0.0408,0.0408,0.0455,0.0454,0.0453,0.0453,0,0,0,0,0,0,0,0.0355,0.0357,0.038,0.0401,0.0406,0.0408,0.0413,0.039,0.0428,0.0436,0.0441,0.0446,0.045,0.0447,0.0446,0.0408,0.0455,0.0453,0.0452,0.0452,0.0347,0.0346,0,0,0,0,0,0,0.0355,0.0356,0.0379,0.0381,0.0389,0.0407,0.0412,0.0416,0.0429,0.0433,0.0444,0.0449,0.0449,0.0448,0.0446,0.0465,0.0453,0.0451,0.045,0.0349,0.0347,0.0345,0,0,0,0,0,0,0.0355,0.0357,0.0379,0.0371,0.0374,0.0406,0.041,0.0416,0.0456,0.0435,0.044,0.0484,0.0451,0.0449,0.0447,0.0463,0.0451,0.0449,0.0351,0.0348,0.0346,0.0452,0,0,0,0,0,0,0.0353,0.0357,0.0372,0.0371,0.0375,0.0394,0.0408,0.0415,0.0454,0.0461,0.0469,0.047,0.0452,0.0449,0.0445,0.0461,0.0448,0.0353,0.035,0.0347,0.045,0.0453,0.0455,0,0,0,0,0,0.0352,0.0365,0.0372,0.0376,0.039,0.0395,0.0397,0.0425,0.0455,0.047,0.047,0.0472,0.0425,0.0447,0.0442,0.0458,0.0355,0.0351,0.0347,0.0449,0.0452,0.0455,0,0,0,0,0,0,0.0362,0.0371,0.038,0.0397,0.0406,0.0406,0.0429,0.0446,0.0459,0.0487,0.0463,0.0462,0.0458,0.0428,0.0453,0.0407,0.0384,0.0379,0.0462,0.0465,0.0468,0.0506,0.0446,0,0,0,0,0,0.0368,0.0387,0.0386,0.0406,0.0412,0.0427,0.044,0.0467,0.0473,0.0485,0.048,0.046,0.0426,0.0429,0.0393,0.0383,0.0343,0.0378,0.038,0.0383,0.0404,0.032,0.0318,0.0332,0.0332,0.0333,0,0,0.0382,0.0389,0.0402,0.0411,0.0424,0.0439,0.0442,0.0485,0.0508,0.0479,0.0509,0.0475,0.042,0.0405,0.04,0.0397,0.0359,0.0378,0.0383,0.0402,0.0316,0.0315,0.0314,0.033,0.033,0.0331,0,0,0.0409,0.0421,0.0443,0.0448,0.0479,0.0485,0.0506,0.0524,0.0545,0.0563,0.053,0.0507,0.0481,0.0433,0.0406,0.0393,0.0368,0.0381,0.0445,0.0363,0.0363,0.0362,0.0332,0.0327,0.0391,0.0392,0.0392,0,0.0432,0.0451,0.0451,0.0465,0.0485,0.051,0.0541,0.055,0.0569,0.0573,0.0592,0.0523,0.0489,0.0439,0.0444,0.0405,0.0375,0.0454,0.0372,0.037,0.0367,0.0336,0.033,0.0396,0.0396,0.0395,0.0395,0,0.045,0.0485,0.05,0.0527,0.0542,0.0582,0.059,0.0614,0.0651,0.065,0.0637,0.0585,0.0549,0.0518,0.0496,0.0448,0.044,0.0384,0.0383,0.0374,0.034,0.0332,0.0403,0.0401,0.04,0.0399,0,0,0.0464,0.051,0.0521,0.0549,0.059,0.0603,0.064,0.0658,0.0673,0.0692,0.0695,0.0645,0.0637,0.0602,0.0551,0.0495,0.046,0.0462,0.0455,0.0467,0.0329,0.0322,0.0312,0.0402,0.04,0.0399,0.0323,0,0.0492,0.0533,0.0558,0.0619,0.0637,0.0671,0.0693,0.0715,0.0724,0.0721,0.0689,0.0674,0.0661,0.0659,0.0603,0.0475,0.044,0.0489,0.0306,0.0301,0.0324,0.0301,0.0394,0.0317,0.0315,0.0314,0.0313,0,0.0497,0.0524,0.0591,0.0657,0.0673,0.0736,0.0772,0.0787,0.0777,0.0785,0.0777,0.0748,0.0698,0.0678,0.0522,0.0562,0.048,0.0388,0.0381,0.0336,0.0278,0.0315,0.0297,0.0298,0.0299,0.03,0.0301,0,0.0474,0.0552,0.0616,0.0635,0.0704,0.0775,0.0824,0.0829,0.0824,0.0834,0.0828,0.0778,0.0745,0.0638,0.0502,0.0515,0.031,0.0282,0.0205,0.0205,0.0193,0.0194,0.018,0.018,0.018,0.018,0.0181,0,0.0476,0.0524,0.0635,0.0664,0.0753,0.08,0.0864,0.0895,0.09,0.0878,0.0879,0.0835,0.0732,0.0612,0.0505,0.0337,0.0313,0.0227,0.0177,0.0239,0.0246,0.0189,0.0191,0.0178,0.0178,0.0179,0.0179,0,0.0442,0.051,0.0582,0.07,0.0753,0.0818,0.0915,0.0904,0.0944,0.0913,0.0931,0.0863,0.0731,0.0606,0.04,0.0324,0.0164,0.0111,0.0224,0.0179,0.0128,0.0136,0.004,0.0039,0.0038,0.0037,0.0036,0,0.0432,0.0463,0.0603,0.0653,0.0743,0.0836,0.0867,0.0933,0.0912,0.0903,0.0869,0.0791,0.073,0.0443,0.0326,0.0145,0.0112,0.0061,0.0088,0.0149,0.0109,0.0119,0.0128,0.0035,0.0035,0.0034,0.0034,0,0.0395,0.0464,0.0518,0.0617,0.0707,0.075,0.0829,0.0833,0.0862,0.0879,0.0804,0.0725,0.0569,0.0415,0.0284,0.0143,0.011,0.0051,0.0053,0.0078,0.0142,0.0106,0.0115,0.0031,0.0032,0.0032,0.0032,0,0.0373,0.0408,0.0488,0.0582,0.0648,0.0691,0.0734,0.0737,0.0745,0.0773,0.073,0.0631,0.0582,0.041,0.0266,0.0158,0.014,0.011,0.0108,0.011,0.0157,0.025,0.0133,0,0,0,0,0,0.0354,0.0387,0.0438,0.0543,0.0587,0.065,0.0694,0.0715,0.0766,0.07,0.0736,0.0607,0.0453,0.0374,0.0261,0.025,0.0119,0.0115,0.0083,0.0014,0.0017,0.006,0,0,0,0,0,0,0.0338,0.0383,0.0419,0.048,0.0542,0.0589,0.0631,0.0661,0.0632,0.0675,0.0573,0.0583,0.0407,0.0517,0.026,0.0232,0.0196,0.0054,0.0052,0.0012,0.0015,0.0018,0.0063,0,0,0,0,0]}]]